Terminal Aerodrome Forecast
Issued by NWS Quad Cities IA IL

Home | Current Version | Previous Version | Text Only | Print | Product List | Glossary On
Versions: 1 2 3 4 5 6 7 8 9 10 11 12 13 14 15 16
000
FTUS43 KDVN 281100 RRA
TAFDBQ
TAF
KDBQ 281143Z 2812/2912 27012KT P6SM SKC
     FM281600 28015G25KT P6SM BKN035
     FM290000 26009KT P6SM SKC=

USA.gov is the U.S. government's official web portal to all federal, state and local government web resources and services.